N55BS KSDL-KLAS

Flight info

Callsign N55BS
Flight time N/A
Altitude 28000
Route MAYSA7 RRSTA ELLDA RKSTR4
Aircraft C700/M-SBDGHM1RWXY/LB2

Departure

Time 2026-04-25 16:15
Airport Scottsdale Airport (KSDL)

Arrival

Time N/A
Airport Harry Reid International Airport (KLAS)
Time Latitude Longitude Altitude Speed Heading
2026-04-25 15:37 33.62603 -111.90444 1502 ft 0 kts 272°
2026-04-25 16:04 33.62603 -111.90452 1502 ft 3 kts 272°
2026-04-25 16:05 33.62589 -111.90508 1502 ft 10 kts 246°
2026-04-25 16:05 33.62602 -111.90570 1503 ft 9 kts 10°
2026-04-25 16:05 33.62743 -111.90415 1501 ft 17 kts 44°
2026-04-25 16:06 33.62837 -111.90306 1499 ft 21 kts 45°
2026-04-25 16:06 33.62945 -111.90183 1502 ft 22 kts 44°
2026-04-25 16:06 33.63022 -111.90094 1502 ft 12 kts 45°
2026-04-25 16:06 33.63062 -111.90072 1503 ft 2 kts 324°
2026-04-25 16:14 33.63076 -111.90088 1503 ft 7 kts 316°
2026-04-25 16:14 33.63077 -111.90144 1502 ft 4 kts 224°
2026-04-25 16:15 33.63077 -111.90145 1502 ft 0 kts 224°
2026-04-25 16:15 33.63016 -111.90214 1502 ft 48 kts 224°
2026-04-25 16:15 33.62508 -111.90809 1540 ft 149 kts 221°
2026-04-25 16:15 33.61702 -111.91692 2652 ft 156 kts 221°
2026-04-25 16:16 33.61086 -111.92983 3156 ft 206 kts 258°
2026-04-25 16:16 33.61408 -111.94762 3724 ft 238 kts 301°
2026-04-25 16:16 33.62740 -111.96037 4425 ft 256 kts 335°
2026-04-25 16:16 33.64452 -111.96707 5199 ft 263 kts 342°
2026-04-25 16:17 33.66214 -111.97267 5941 ft 256 kts 344°
2026-04-25 16:17 33.67885 -111.97761 5979 ft 240 kts 345°
2026-04-25 16:17 33.69485 -111.98212 5978 ft 234 kts 345°
2026-04-25 16:17 33.71050 -111.98653 5984 ft 230 kts 344°
2026-04-25 16:18 33.72607 -111.99093 5989 ft 232 kts 344°
2026-04-25 16:18 33.73138 -111.99242 5993 ft 233 kts 345°
2026-04-25 16:18 33.75745 -111.99998 5925 ft 234 kts 344°
2026-04-25 16:18 33.77346 -112.00462 5933 ft 237 kts 345°
2026-04-25 16:19 33.78945 -112.00924 5940 ft 236 kts 345°
2026-04-25 16:19 33.80539 -112.01386 5930 ft 237 kts 344°
2026-04-25 16:19 33.82154 -112.01855 5933 ft 236 kts 344°
2026-04-25 16:20 33.85337 -112.02766 5927 ft 237 kts 344°
2026-04-25 16:20 33.86943 -112.03218 5924 ft 237 kts 345°
2026-04-25 16:20 33.90140 -112.04133 5930 ft 226 kts 345°
2026-04-25 16:21 33.91592 -112.04547 5915 ft 204 kts 345°
2026-04-25 16:21 33.92945 -112.04931 5909 ft 206 kts 344°
2026-04-25 16:21 33.94351 -112.05324 5931 ft 204 kts 345°
2026-04-25 16:21 33.95714 -112.05692 5921 ft 201 kts 345°
2026-04-25 16:22 33.97072 -112.06079 5920 ft 200 kts 344°
2026-04-25 16:22 33.98454 -112.06476 5934 ft 205 kts 345°
2026-04-25 16:22 33.99859 -112.06748 5906 ft 207 kts
2026-04-25 16:22 34.01122 -112.06054 5921 ft 202 kts 49°
2026-04-25 16:23 34.01692 -112.04554 5928 ft 196 kts 92°
2026-04-25 16:23 34.01352 -112.03041 5944 ft 186 kts 125°
2026-04-25 16:23 34.00621 -112.01784 5932 ft 183 kts 130°
2026-04-25 16:23 33.99673 -112.00870 5929 ft 176 kts 160°
2026-04-25 16:24 33.98503 -112.00425 5933 ft 178 kts 166°
2026-04-25 16:24 33.97334 -112.00003 5929 ft 171 kts 165°
2026-04-25 16:24 33.96170 -111.99593 5936 ft 178 kts 166°
2026-04-25 16:24 33.95003 -111.99178 5928 ft 173 kts 165°
2026-04-25 16:25 33.93860 -111.98762 5936 ft 174 kts 165°
2026-04-25 16:25 33.93075 -111.98501 5920 ft 178 kts 167°
2026-04-25 16:25 33.91494 -111.97938 5886 ft 180 kts 165°
2026-04-25 16:25 33.90260 -111.97480 5535 ft 184 kts 165°
2026-04-25 16:26 33.89064 -111.97046 5183 ft 178 kts 166°
2026-04-25 16:26 33.87862 -111.96598 4832 ft 186 kts 160°
2026-04-25 16:26 33.86725 -111.95759 4511 ft 194 kts 145°
2026-04-25 16:26 33.85642 -111.94787 4180 ft 194 kts 147°
2026-04-25 16:27 33.84579 -111.93815 3854 ft 190 kts 145°
2026-04-25 16:27 33.83506 -111.92862 3523 ft 194 kts 146°
2026-04-25 16:27 33.82394 -111.91911 3178 ft 198 kts 146°
2026-04-25 16:27 33.81288 -111.90961 3114 ft 184 kts 145°
2026-04-25 16:28 33.80211 -111.90057 3414 ft 199 kts 145°
2026-04-25 16:28 33.79097 -111.89122 3706 ft 195 kts 148°
2026-04-25 16:28 33.77978 -111.88201 3920 ft 201 kts 154°
2026-04-25 16:28 33.76645 -111.87780 3943 ft 195 kts 174°
2026-04-25 16:29 33.75310 -111.87611 3934 ft 190 kts 175°
2026-04-25 16:29 33.73986 -111.87459 3973 ft 191 kts 174°
2026-04-25 16:29 33.72654 -111.87308 3975 ft 191 kts 174°
2026-04-25 16:29 33.71340 -111.87167 3680 ft 189 kts 176°
2026-04-25 16:30 33.70091 -111.87067 3388 ft 171 kts 176°
2026-04-25 16:30 33.68896 -111.87026 3073 ft 174 kts 179°
2026-04-25 16:30 33.67712 -111.87147 2842 ft 168 kts 187°
2026-04-25 16:30 33.66577 -111.87391 2617 ft 151 kts 190°
2026-04-25 16:31 33.65690 -111.87786 2433 ft 132 kts 205°
2026-04-25 16:31 33.64910 -111.88319 2192 ft 125 kts 213°
2026-04-25 16:31 33.64224 -111.88978 1953 ft 128 kts 214°
2026-04-25 16:31 33.63524 -111.89656 1717 ft 131 kts 218°
2026-04-25 16:32 33.62860 -111.90399 1509 ft 123 kts 220°
2026-04-25 16:32 33.62398 -111.90917 1505 ft 50 kts 224°
2026-04-25 16:32 33.62216 -111.91128 1501 ft 10 kts 214°
2026-04-25 16:32 33.62171 -111.91080 1500 ft 11 kts 74°
2026-04-25 16:33 33.62231 -111.91005 1501 ft 14 kts 43°
2026-04-25 16:33 33.62303 -111.90921 1504 ft 15 kts 42°
2026-04-25 16:33 33.62388 -111.90825 1505 ft 19 kts 45°
2026-04-25 16:33 33.62491 -111.90707 1505 ft 22 kts 44°
2026-04-25 16:34 33.62610 -111.90569 1503 ft 26 kts 44°
2026-04-25 16:34 33.62687 -111.90467 1501 ft 7 kts 89°
2026-04-25 16:34 33.62647 -111.90420 1502 ft 10 kts 153°
2026-04-25 16:34 33.62610 -111.90419 1502 ft 0 kts 269°